Theta_e
327 327 326 326 325 323 322 321 321 320 319 319 318 319 320 320 319 316 321 329 329 327 326 323 322 322 323 325 325 326 326 327 328 328 328 327 326 325 325 327 324 319 316 313 312 312 312 313 314 314 314 315 316 317 317 317 318 318 321 320 319 321 321 321 321 319 318 320 319 318 319 319 319 317 317 317 317 318 318 318 320 319 318 318 317 322 331 329
327 326 326 326 324 323 321 320 319 319 318 318 317 317 319 319 319 316 319 327 327 325 325 323 323 322 323 324 325 325 327 328 328 327 327 325 325 324 325 327 321 313 314 314 313 312 312 313 315 314 313 316 317 318 319 318 318 320 321 320 320 322 321 320 321 319 318 319 319 318 319 320 319 318 317 317 318 318 318 318 318 319 319 317 316 319 323 326
327 326 326 325 324 322 321 320 319 318 317 317 316 316 318 319 318 316 317 325 327 325 325 323 322 322 323 324 324 325 327 328 326 326 326 324 325 325 324 326 319 311 313 315 313 311 312 313 314 314 314 316 317 318 320 319 319 320 321 321 321 322 320 319 320 317 317 319 320 319 319 320 319 318 317 318 319 318 317 318 318 319 321 319 316 317 319 325
326 326 326 325 324 322 321 321 319 318 317 316 315 315 318 318 318 316 316 324 327 326 325 324 323 323 323 324 325 326 326 326 324 326 326 324 325 324 325 324 317 311 312 313 312 310 311 313 313 313 314 316 317 317 319 318 319 319 319 320 320 321 320 318 317 316 316 318 319 319 319 319 318 317 317 318 318 318 317 317 318 317 320 321 317 316 318 322
326 326 325 324 324 322 321 321 319 319 318 316 315 315 317 317 317 316 317 325 327 326 326 325 324 324 324 324 326 326 325 325 323 324 325 323 324 324 325 322 315 312 312 312 312 310 310 313 313 313 314 315 316 317 318 318 318 319 318 318 319 320 319 316 316 315 315 317 318 318 318 318 317 317 317 318 316 317 317 317 318 317 318 321 318 316 318 319
326 325 324 324 324 322 322 321 319 318 318 317 316 315 316 317 317 317 319 325 327 327 326 325 325 325 325 326 327 323 322 324 318 318 322 321 322 323 323 319 313 311 311 312 311 310 311 312 312 313 314 315 316 316 317 317 318 318 318 318 317 317 317 315 314 314 314 316 318 318 318 317 316 317 317 317 317 317 317 317 317 316 319 322 318 316 317 318
326 324 323 324 323 322 322 321 319 318 318 317 316 315 316 317 317 317 320 325 328 327 326 325 325 326 327 325 324 318 317 320 314 313 318 320 320 320 321 320 314 311 311 312 311 310 312 312 312 313 314 314 316 316 316 317 317 318 318 318 316 315 316 314 313 313 314 316 317 317 316 316 316 316 316 316 317 317 316 315 316 315 318 320 318 315 316 317
324 323 323 323 322 321 321 321 320 319 318 317 317 316 316 317 317 317 318 323 327 327 326 326 326 327 328 323 317 313 314 318 314 312 316 318 318 317 319 319 315 311 311 312 310 310 312 312 312 313 314 314 315 316 316 316 317 317 318 317 315 314 314 312 312 312 313 315 315 315 316 316 316 315 315 316 317 317 316 315 315 314 315 316 315 315 315 316
324 323 323 323 321 321 321 320 319 319 318 317 317 316 316 317 317 317 316 320 325 327 326 325 327 328 326 320 314 312 316 320 315 311 315 318 319 318 318 317 315 311 311 312 309 310 312 311 313 313 314 314 315 316 315 316 316 317 318 317 316 314 313 312 313 312 313 314 314 315 316 315 314 314 316 316 316 316 316 315 315 315 314 315 315 315 314 315
324 323 323 322 321 321 320 320 319 319 318 316 317 317 317 316 316 316 316 317 322 326 326 326 327 326 322 317 314 315 319 322 318 312 312 316 318 318 317 315 314 311 312 312 309 311 312 311 313 313 314 314 314 315 315 316 316 317 317 316 315 314 313 313 314 313 313 313 313 316 316 315 313 314 316 316 316 316 315 315 315 315 314 315 315 315 314 315
324 323 322 322 321 320 320 320 319 319 319 317 317 317 317 316 316 316 315 316 320 325 326 326 324 321 319 316 314 318 319 321 321 316 312 313 315 315 316 315 313 311 312 311 309 311 313 312 312 313 313 313 314 314 315 315 315 316 316 315 315 314 314 313 314 313 314 314 313 316 316 315 313 314 316 316 316 315 315 315 315 315 315 315 314 314 314 316
324 323 322 322 321 320 319 319 318 318 319 318 317 317 316 316 315 315 315 317 321 325 326 323 319 316 315 313 314 318 318 318 321 319 315 312 312 313 316 316 313 312 312 310 310 312 313 312 311 313 312 313 313 314 314 314 315 316 316 316 315 315 315 314 315 313 314 315 313 315 315 314 315 315 316 316 315 314 314 315 315 314 316 318 317 314 314 316
324 322 321 321 320 319 319 318 317 317 317 316 316 316 315 315 314 314 316 320 323 324 322 317 314 314 311 311 314 315 314 317 317 317 315 312 311 312 314 314 313 313 311 309 310 313 313 311 311 313 312 313 314 313 313 314 315 316 316 317 315 315 315 315 315 313 314 314 312 314 314 315 317 316 316 315 314 314 314 315 316 315 315 318 319 316 314 314
323 322 321 321 320 319 318 318 317 316 316 316 315 315 314 314 314 315 318 321 322 320 316 313 313 312 310 312 315 313 312 314 314 313 313 311 311 311 312 312 312 311 310 310 313 314 312 311 311 312 312 313 313 313 313 313 314 315 315 316 316 315 315 315 315 314 315 313 312 313 313 316 318 317 315 315 314 314 315 315 316 316 316 317 317 315 314 314
322 321 321 320 319 318 318 317 316 316 316 316 315 315 315 315 315 316 318 319 317 314 312 312 310 309 310 313 313 313 313 312 312 312 311 311 311 311 311 310 310 310 311 312 313 313 311 310 311 312 312 312 313 313 313 314 314 315 314 314 315 315 314 315 315 314 315 314 313 313 313 316 317 316 313 314 314 313 315 316 315 317 318 317 317 314 314 314
322 321 321 320 319 318 317 316 315 316 316 316 316 315 315 314 315 316 317 316 313 311 310 309 307 309 313 315 312 312 314 312 311 312 312 311 311 311 310 309 311 311 312 311 311 311 310 311 312 313 312 312 313 313 314 313 313 314 314 313 315 315 315 315 314 314 315 314 314 313 314 316 316 315 312 312 313 313 314 316 316 316 316 317 317 315 314 314
321 321 320 319 318 317 316 315 314 315 316 316 315 314 314 315 315 314 315 313 311 309 309 307 306 310 314 314 314 313 313 313 312 312 312 312 311 311 310 311 311 311 311 311 311 311 311 311 312 312 313 312 313 314 313 313 312 314 314 314 315 315 315 315 314 314 315 315 315 313 314 316 316 315 313 312 313 314 314 315 316 316 315 316 315 315 315 314
321 320 320 318 318 317 315 314 314 315 316 315 315 314 314 314 313 314 314 313 309 307 309 308 307 313 318 314 314 314 313 313 311 311 313 312 312 312 311 312 311 311 311 311 311 311 311 312 312 312 313 312 313 313 313 313 313 313 313 314 315 315 314 315 314 314 314 314 315 315 314 315 316 316 315 313 313 314 315 315 315 315 315 315 315 315 315 314
320 320 319 318 318 316 314 314 315 316 315 315 316 315 314 314 313 315 314 310 308 308 311 311 310 316 319 313 313 314 312 312 310 312 314 313 312 312 312 312 311 311 312 311 312 312 312 313 312 313 312 312 313 314 314 315 315 315 314 314 314 313 313 314 314 312 313 314 315 315 315 315 316 316 316 315 314 314 314 315 315 315 315 315 315 315 315 314
319 319 319 318 317 315 314 315 316 316 314 315 316 314 314 314 314 315 313 310 310 311 312 311 312 315 313 311 313 313 312 311 310 312 314 313 312 312 312 311 312 312 312 313 313 312 313 313 313 313 313 313 313 314 314 314 316 316 315 314 314 314 313 314 313 311 313 314 315 315 316 316 316 316 317 317 315 315 315 315 315 315 315 315 315 315 315 314
319 319 318 317 316 314 314 314 314 314 314 315 315 314 315 315 315 315 313 312 311 310 311 310 312 313 310 311 313 312 311 311 311 312 313 313 312 312 312 312 312 312 313 314 313 312 313 313 313 313 314 313 313 314 314 313 314 315 315 314 314 314 314 313 313 312 312 313 314 315 315 315 316 316 317 317 316 316 316 316 315 315 316 316 316 316 316 315
319 319 318 316 315 314 314 313 313 313 314 315 314 314 315 315 315 315 313 312 310 309 310 310 311 311 309 310 311 311 312 312 312 313 312 312 312 312 313 312 312 312 313 314 313 312 312 313 313 313 313 313 313 313 313 313 314 314 314 314 313 314 314 313 313 312 312 312 314 315 315 315 316 316 316 317 316 316 316 316 315 315 315 316 317 316 316 316
319 318 317 315 314 314 314 313 312 314 315 315 314 314 314 314 314 315 313 311 310 309 310 310 311 311 310 310 311 311 312 312 312 313 312 312 312 313 312 312 312 312 312 313 313 313 313 313 312 312 312 313 312 312 312 313 313 314 314 312 313 315 313 312 313 312 311 311 313 314 315 315 315 315 316 317 317 317 317 317 316 316 316 316 317 317 316 316
317 317 315 314 314 313 313 312 313 315 315 315 315 313 312 312 313 314 313 311 310 309 310 310 310 312 311 310 311 311 313 312 313 314 312 312 313 313 312 312 312 312 312 312 312 313 313 310 308 310 312 312 312 312 313 313 312 315 317 314 315 316 314 313 314 312 312 311 312 314 313 313 315 315 315 317 317 317 317 316 316 315 316 315 316 316 316 315
316 315 314 314 313 311 311 311 313 315 314 315 314 311 311 312 312 313 312 312 312 309 309 309 310 312 311 310 310 312 313 312 313 314 312 312 313 312 312 312 312 312 311 312 312 313 312 307 307 310 312 313 313 312 313 314 312 314 317 316 315 314 314 314 314 313 313 313 313 314 311 311 315 316 316 317 316 316 316 316 316 315 315 315 315 315 315 315
316 314 314 312 311 310 311 312 314 314 314 314 313 309 310 311 311 313 312 312 312 310 309 309 310 311 311 311 311 311 311 312 313 313 312 312 312 312 312 312 312 312 312 312 312 312 309 305 307 312 312 314 314 312 314 315 312 312 316 316 314 314 315 315 315 314 313 313 312 312 312 311 314 316 317 317 315 315 315 316 316 315 315 315 315 315 315 315
315 314 313 311 310 311 312 314 314 313 314 314 311 308 309 310 310 313 312 312 312 311 309 309 310 310 311 312 311 310 311 312 312 312 312 312 312 311 312 311 311 311 312 311 312 311 308 306 309 313 313 315 314 313 315 315 312 314 316 316 313 315 317 316 316 315 314 314 312 312 314 312 312 315 316 316 315 315 315 315 316 315 316 316 315 314 314 315
314 313 312 310 310 312 313 314 313 313 313 312 309 308 309 309 310 312 311 311 312 311 309 308 309 311 312 312 311 311 312 312 312 312 312 311 312 311 312 312 311 311 311 311 312 311 309 310 311 313 313 315 314 314 316 315 313 316 315 315 315 316 317 317 316 315 315 314 312 314 315 312 311 314 316 314 314 315 315 315 316 316 316 315 314 313 313 313
313 313 312 310 311 312 313 312 312 313 312 310 308 308 308 308 309 311 311 311 311 310 309 309 309 311 312 312 312 312 312 312 313 313 311 311 311 311 311 313 312 311 310 312 314 312 311 310 310 312 314 314 313 312 315 318 315 314 313 314 316 316 317 317 316 315 314 313 312 315 315 312 311 313 315 315 314 315 316 316 317 317 316 315 315 314 313 313
313 313 311 310 311 312 313 312 312 312 310 308 308 308 308 308 309 311 312 312 312 310 309 309 310 311 312 311 311 312 312 313 313 312 312 311 311 311 311 312 312 311 311 314 314 311 309 308 309 312 312 311 310 309 312 316 314 313 314 315 315 315 315 315 315 314 313 313 313 314 314 313 311 312 316 316 314 314 316 315 316 316 316 315 315 314 313 313
313 312 311 311 311 312 313 312 311 310 308 308 308 307 308 309 309 311 312 313 312 310 309 309 310 312 312 311 311 311 312 313 312 312 311 311 311 311 311 312 312 313 313 314 314 312 310 309 310 311 308 309 311 310 310 312 312 315 316 315 314 314 314 313 313 313 313 313 312 311 313 314 311 312 315 316 313 313 314 314 314 315 316 316 314 313 313 314
313 312 312 311 311 311 312 311 310 308 308 308 308 308 309 310 310 312 312 311 312 310 309 310 311 311 311 311 311 311 312 313 312 312 311 311 311 311 312 312 312 313 312 312 314 314 313 312 312 311 308 309 313 312 310 310 312 315 315 314 314 314 314 314 313 313 313 312 310 309 312 313 312 313 314 315 314 313 313 314 314 315 316 315 314 312 312 314
313 313 312 311 311 311 310 309 308 308 308 309 309 309 310 310 311 312 310 310 312 311 311 311 311 311 311 312 312 312 313 313 312 312 312 312 312 312 313 313 313 313 313 313 314 314 314 313 313 313 310 310 313 313 311 311 312 314 314 313 313 313 315 315 314 313 313 312 309 309 311 312 312 313 314 315 314 313 313 313 314 314 314 313 312 312 312 313
313 312 311 311 310 309 308 308 307 308 308 309 310 310 311 312 312 312 311 311 311 311 311 312 311 311 312 312 313 313 313 313 312 312 312 313 313 313 313 313 313 314 314 313 314 314 314 313 312 313 312 311 312 313 314 314 313 314 316 315 313 313 314 315 314 314 314 312 309 309 311 311 312 313 314 314 313 311 312 312 312 311 312 312 311 312 313 314
313 312 311 311 310 308 308 308 308 308 309 310 310 310 311 312 312 312 312 311 311 311 311 312 312 312 312 313 313 312 313 314 313 313 313 313 313 313 313 312 313 315 314 314 314 313 314 314 312 311 310 311 313 313 314 315 314 314 316 316 314 314 314 312 312 312 312 312 311 310 311 312 314 314 314 314 312 310 310 310 311 311 312 311 312 313 313 314
312 311 311 311 310 308 308 308 308 309 309 310 310 310 312 313 313 313 312 310 311 312 312 312 312 312 312 314 313 312 313 314 313 313 313 313 313 314 314 313 313 314 314 314 314 313 313 314 312 310 310 309 310 311 312 313 314 314 314 314 314 314 314 312 310 309 309 311 313 312 312 313 313 314 315 314 312 311 311 310 311 312 312 312 312 313 314 314
312 311 311 310 309 308 308 308 308 309 310 311 310 311 313 312 313 313 311 311 311 312 312 312 313 313 313 314 314 313 313 314 314 313 314 313 313 314 314 313 313 313 314 314 313 314 314 313 312 313 314 310 307 309 311 310 311 313 313 314 313 313 313 311 311 311 310 311 312 311 311 311 311 312 314 314 312 312 311 311 312 312 312 312 313 313 314 314
312 311 311 310 309 309 308 308 308 309 311 312 311 312 313 312 312 312 311 311 311 312 312 313 313 313 313 313 313 313 314 314 314 314 314 313 313 314 314 314 314 313 314 313 313 315 315 314 313 313 313 311 309 310 312 310 310 311 312 313 313 313 312 311 312 312 312 312 312 311 310 310 311 312 312 313 313 312 312 312 312 312 312 313 314 313 313 313
312 312 312 311 310 309 308 308 309 310 312 312 311 312 314 313 312 312 311 311 312 312 313 313 313 313 313 312 313 313 313 313 313 314 314 314 313 314 314 314 314 313 312 312 313 315 315 314 314 311 311 312 311 311 313 312 311 310 310 311 313 314 313 312 312 312 312 312 311 311 310 310 312 313 312 313 313 312 312 313 313 312 313 314 313 313 313 312
312 313 313 311 310 309 308 308 310 312 311 312 312 313 314 313 311 312 312 312 313 313 313 314 313 314 314 313 313 313 313 313 313 313 314 314 312 312 313 314 314 312 312 312 314 315 313 313 315 312 310 312 312 312 314 314 312 310 310 311 312 312 311 311 312 311 311 311 311 312 311 311 313 314 313 314 313 312 312 312 314 314 314 313 312 312 311 312
312 314 313 312 311 310 309 310 311 312 311 311 311 312 314 313 312 313 313 314 314 312 313 314 314 313 314 314 313 313 313 313 314 313 314 314 312 312 313 313 313 312 311 311 313 314 312 312 315 312 311 312 313 312 311 313 313 312 311 311 312 312 312 312 313 311 310 310 311 311 311 312 313 312 313 313 311 311 311 311 313 314 313 312 311 311 312 313
313 314 312 312 311 309 310 311 311 312 312 311 310 312 313 312 312 313 312 313 314 313 313 315 314 314 315 314 314 314 313 314 314 314 314 314 313 313 313 313 313 311 311 312 314 315 313 314 315 313 313 313 312 310 307 309 313 313 312 313 313 313 312 313 314 313 311 309 309 310 310 312 313 310 310 311 310 309 308 308 311 313 311 310 312 313 314 315
313 313 312 312 310 310 311 311 311 313 312 310 310 312 313 313 312 313 313 313 314 314 314 314 315 315 315 315 315 314 314 314 315 314 314 315 314 312 311 311 311 311 312 313 314 313 313 315 315 313 312 312 310 310 308 309 312 312 312 313 313 314 315 314 313 313 312 310 309 311 311 313 315 311 308 308 307 307 306 306 308 310 310 310 313 315 315 315
312 312 311 310 310 311 312 311 312 312 311 310 311 311 311 313 313 312 313 314 314 314 313 313 314 314 314 315 314 314 314 313 315 315 314 315 313 309 309 310 311 312 311 312 314 312 312 315 316 314 314 313 312 312 312 311 311 311 313 313 313 315 316 313 312 312 313 313 313 312 312 313 315 312 310 309 308 308 308 307 308 310 310 312 314 315 314 314
312 312 311 309 310 312 313 312 312 312 310 310 312 311 310 312 312 311 314 315 314 315 314 313 315 314 314 314 314 315 314 314 315 315 315 315 312 309 310 310 310 311 311 311 312 312 313 316 315 315 315 315 315 315 314 314 313 311 313 314 313 314 314 312 313 312 313 315 315 312 312 312 311 311 311 311 311 310 310 309 308 309 311 313 313 313 313 313
312 312 311 310 310 312 312 312 312 311 310 310 311 312 312 311 310 311 313 313 312 315 315 313 314 313 313 314 314 314 315 315 315 314 314 314 312 310 310 310 311 311 310 311 311 313 316 317 314 314 315 315 315 316 316 316 315 314 315 316 314 314 314 314 314 313 313 315 315 313 314 314 312 311 311 312 311 311 311 310 309 310 312 313 312 312 312 312
311 311 311 311 311 311 312 312 312 311 310 309 310 311 313 312 310 310 312 313 312 314 314 313 313 313 313 314 314 314 314 315 314 314 314 313 311 310 309 309 311 309 309 311 312 313 315 315 314 316 316 315 316 317 319 319 317 316 317 317 317 315 314 315 314 314 315 315 314 315 316 315 314 312 312 312 312 311 312 311 311 311 312 313 312 311 312 312
309 310 310 311 311 312 311 312 312 311 311 310 310 312 313 312 311 310 311 312 312 314 314 313 313 313 313 314 314 314 315 314 313 314 315 314 311 310 308 309 310 308 309 311 311 312 313 313 314 316 315 316 316 317 318 318 317 316 317 317 317 315 314 315 315 315 316 315 314 315 316 316 315 313 312 313 313 312 312 312 311 312 313 313 311 311 311 311
307 309 309 310 312 312 311 311 312 311 311 310 310 311 312 312 312 311 312 312 312 313 314 313 313 313 314 314 314 315 315 313 314 315 315 313 312 311 309 309 309 308 309 312 311 312 312 313 314 315 315 315 316 316 316 317 317 317 317 316 316 314 313 314 314 314 315 315 314 314 316 317 316 314 313 314 314 313 312 312 311 312 313 312 312 311 310 310
307 308 309 310 311 312 311 311 311 310 310 310 310 311 312 312 313 313 313 313 313 313 314 315 314 313 315 314 314 315 314 313 315 315 313 313 313 312 311 311 310 308 310 311 311 311 311 313 315 315 313 314 317 318 316 316 317 317 318 318 316 314 314 314 314 314 315 315 315 315 316 317 316 315 314 313 312 311 311 311 311 312 313 312 311 311 310 310
306 307 309 310 311 312 312 311 310 310 310 310 310 311 312 312 313 314 313 313 314 314 314 315 315 315 315 315 316 317 315 315 316 314 312 313 313 312 312 312 311 310 310 311 311 311 311 312 314 314 312 314 317 317 315 314 314 314 316 318 317 315 315 314 314 314 315 315 316 316 316 316 315 315 314 312 310 310 311 311 311 311 312 312 311 311 310 310
306 307 308 310 310 311 311 311 310 310 310 310 310 311 312 312 313 313 312 312 314 315 315 315 316 315 315 316 318 318 315 314 315 313 311 312 312 311 312 312 310 311 311 310 311 312 311 311 313 313 312 313 315 315 315 314 312 311 314 316 316 315 315 314 314 314 314 315 315 316 316 315 315 315 314 313 311 311 312 311 312 312 312 312 311 311 311 310
Wind_Speed
54 52 49 46 44 42 41 40 38 38 39 40 41 43 44 41 39 38 39 41 39 36 36 36 35 34 33 30 27 24 22 22 23 25 28 23 18 18 16 14 14 11 12 9 6 8 7 8 10 9 5 6 8 7 10 9 8 6 4 5 5 5 4 4 6 3 2 6 10 13 17 13 9 11 8 7 8 4 6 8 7 9 9 6 5 10 13 15
55 53 50 46 44 42 40 38 36 36 38 39 40 43 43 42 40 38 39 40 38 35 35 35 35 34 33 31 29 25 22 21 22 26 29 22 18 20 16 14 14 9 11 13 8 7 9 8 8 9 7 8 8 7 9 8 8 6 4 5 6 4 3 2 3 3 3 5 12 13 15 12 9 13 11 8 9 9 7 8 9 8 10 10 7 9 13 16
56 53 51 47 44 42 40 37 35 34 35 37 40 41 42 41 40 39 39 39 36 34 33 33 34 33 32 32 29 26 23 20 21 27 26 22 23 25 20 16 15 9 10 14 9 7 10 9 7 8 8 9 8 8 8 8 8 5 3 5 4 3 5 4 3 4 4 4 11 13 12 9 8 13 12 9 9 10 10 9 11 11 12 12 11 11 13 16
55 53 52 48 44 43 39 36 34 32 32 34 38 40 41 41 40 39 39 38 35 33 33 32 32 32 32 30 28 26 22 16 20 28 24 22 27 28 25 20 16 11 10 12 9 8 11 11 10 8 8 9 7 8 9 9 7 4 4 3 1 2 4 4 4 5 5 5 9 12 11 8 8 10 11 10 8 8 11 11 11 13 14 15 14 12 13 17
55 54 53 49 45 43 40 37 35 32 30 32 36 39 41 40 39 38 38 37 35 33 32 31 30 31 30 29 27 24 18 9 13 25 23 23 26 27 26 21 16 12 11 12 11 11 12 13 12 9 9 9 7 7 9 11 7 5 4 2 5 2 2 5 4 5 6 5 9 12 11 9 8 8 11 12 8 3 4 9 10 8 11 16 17 13 14 19
55 53 53 49 46 43 38 36 35 33 31 32 34 38 41 40 38 37 38 37 35 32 31 30 29 30 29 28 26 22 18 6 4 13 20 24 25 25 26 20 13 11 13 15 14 14 13 13 12 10 10 8 8 9 7 10 9 5 4 2 4 3 3 4 2 5 5 5 9 11 9 9 9 9 11 14 10 2 4 6 9 8 9 14 17 15 14 18
54 52 51 48 45 42 38 36 35 33 32 32 33 37 40 40 38 37 38 37 36 34 32 31 30 30 29 27 24 22 20 11 4 3 15 25 25 23 24 21 14 12 16 18 17 16 14 14 13 12 11 7 9 10 5 8 10 7 3 6 4 5 3 3 2 6 5 3 7 8 8 9 10 8 7 13 12 3 2 5 7 10 12 13 13 15 15 15
53 50 48 45 44 42 38 35 34 33 33 34 34 36 39 39 38 37 38 37 36 35 33 33 31 30 29 27 24 21 23 18 3 2 11 24 26 23 23 23 19 18 20 20 19 18 15 15 15 13 10 7 8 9 6 7 8 9 3 7 5 5 4 3 3 5 4 4 5 7 7 7 6 4 4 12 12 9 10 6 4 6 11 14 13 13 15 16
53 50 47 44 43 42 39 35 33 33 34 35 36 36 38 38 37 36 37 37 37 36 35 33 31 30 29 27 22 15 21 24 12 5 8 21 27 25 25 25 23 23 23 21 19 18 16 16 16 13 8 7 7 7 9 8 6 8 5 7 7 6 5 4 3 4 4 4 5 8 7 3 3 4 6 10 11 11 15 13 8 5 7 13 14 13 15 16
54 52 50 46 44 41 38 35 33 33 33 36 36 36 37 38 37 35 36 36 36 37 35 33 31 31 29 27 19 10 16 26 22 10 6 15 25 26 26 26 24 25 24 22 21 20 19 16 15 15 9 6 6 6 9 8 3 6 8 8 8 6 5 3 3 5 4 4 6 7 6 2 2 4 5 8 13 14 14 13 15 12 8 9 13 15 15 16
54 53 50 46 43 40 37 34 34 32 33 36 36 36 35 37 37 34 35 36 36 36 35 33 31 31 30 27 19 10 12 20 25 22 8 8 19 26 28 27 24 25 24 22 22 21 22 18 14 14 8 4 6 5 6 5 0 9 13 9 7 6 6 3 4 6 4 4 6 4 4 3 3 4 4 8 12 14 13 12 15 16 13 11 12 14 16 17
54 53 49 44 42 40 38 35 35 34 34 36 36 35 33 35 36 34 34 35 36 36 35 34 32 31 29 24 19 11 9 14 19 24 19 9 11 20 28 28 25 25 24 22 22 21 21 19 14 13 8 4 6 4 4 5 3 9 12 7 7 6 6 5 4 6 3 4 7 3 3 5 6 9 8 8 9 9 12 12 13 16 15 13 13 15 16 18
54 52 47 44 42 40 38 36 35 35 35 36 35 34 33 34 35 34 35 37 38 37 36 34 32 32 27 18 20 15 8 10 12 17 23 18 9 15 27 28 26 25 23 22 21 20 20 18 12 13 12 7 3 4 3 6 5 8 9 5 6 5 6 7 5 5 3 4 10 5 3 7 11 14 11 12 11 9 10 11 11 15 15 15 16 18 18 18
53 50 47 44 42 40 38 36 34 34 34 34 34 34 34 33 34 35 36 37 38 37 35 34 33 32 23 13 19 21 13 9 10 13 20 22 14 13 22 25 24 23 22 21 19 18 19 17 11 11 13 8 2 5 5 6 5 7 6 5 6 6 6 8 6 7 4 6 10 5 4 5 8 12 10 12 14 11 9 9 10 12 14 16 19 21 21 20
52 50 47 44 42 40 38 35 32 32 33 32 33 34 33 31 32 35 36 36 37 36 35 34 34 28 16 12 15 19 20 14 9 11 15 20 16 13 19 24 22 22 20 19 18 17 17 17 12 9 8 6 6 6 5 5 5 6 6 6 7 6 5 7 6 7 3 5 9 6 5 5 5 10 8 11 13 11 10 9 10 10 11 14 17 21 22 22
52 49 47 45 42 40 38 35 32 33 34 34 34 32 30 30 31 33 33 33 35 35 34 33 34 23 9 11 12 15 21 20 14 12 13 17 15 14 19 22 20 20 18 16 16 15 17 15 10 7 6 6 7 6 5 5 5 6 7 7 8 8 6 6 5 5 2 5 10 8 5 5 4 8 6 9 10 10 10 10 11 11 10 11 14 18 21 22
52 50 47 45 43 39 38 35 34 37 37 36 35 30 29 29 30 30 28 30 33 34 30 27 30 17 5 11 12 14 20 24 21 14 13 16 15 14 19 21 18 17 15 14 13 14 16 13 8 7 6 6 8 7 7 7 7 7 7 6 6 9 7 5 4 5 5 5 8 10 7 7 3 7 7 9 9 9 10 11 11 11 11 11 12 15 19 21
54 51 47 45 42 40 39 36 38 40 37 35 33 31 31 28 28 27 25 27 30 29 19 18 24 10 8 17 14 13 20 26 25 17 14 17 16 16 20 20 17 16 14 12 11 13 14 11 8 7 6 8 8 9 9 8 9 9 8 6 4 6 7 5 4 6 9 7 8 10 10 13 8 6 9 11 11 9 8 9 9 10 11 12 12 14 17 20
54 50 48 45 43 42 39 39 42 40 37 34 32 33 31 28 26 22 23 30 30 22 9 20 31 9 3 17 17 13 18 24 24 18 16 19 18 18 19 18 19 19 15 10 9 12 11 7 7 7 8 10 10 12 10 7 9 11 11 9 7 7 7 4 3 3 5 7 9 11 10 12 13 10 9 12 13 10 9 8 8 10 11 12 13 15 17 21
54 49 48 46 44 44 41 44 43 40 40 36 38 39 32 29 21 12 23 32 33 22 7 25 37 10 5 16 23 19 17 20 22 19 17 20 21 19 17 17 18 16 12 9 9 10 10 6 7 9 10 12 14 13 6 2 5 9 11 10 8 8 6 4 5 2 2 4 9 12 11 12 13 12 10 11 12 11 11 11 12 13 13 14 15 16 18 22
53 49 49 46 46 45 44 47 42 42 43 40 48 40 31 36 19 17 34 25 24 19 6 23 32 9 5 16 25 24 18 16 18 19 18 20 22 18 15 16 15 10 8 9 9 8 8 7 9 12 10 11 12 9 2 1 2 6 8 8 7 6 3 4 4 3 2 3 6 7 9 13 12 11 12 11 11 12 14 14 15 16 15 15 16 17 19 21
52 49 48 45 46 45 46 46 41 46 43 43 50 28 24 33 14 30 45 16 11 12 5 25 27 6 5 14 23 25 21 17 16 20 22 22 23 17 13 14 12 8 7 9 8 6 7 9 10 8 3 4 5 3 2 2 3 5 5 6 6 4 4 4 4 4 3 3 3 2 5 11 12 12 13 14 15 15 16 16 16 16 16 16 16 17 20 21
51 49 48 46 47 46 46 44 43 48 45 48 46 20 19 25 11 33 40 14 10 9 7 26 24 9 8 12 22 21 18 18 18 22 25 24 21 16 14 14 11 9 8 10 9 7 7 6 4 5 5 6 4 4 5 4 4 5 4 6 5 5 4 2 4 5 3 2 2 3 5 9 10 10 12 16 18 16 14 15 15 16 17 17 16 17 21 23
50 50 48 47 48 46 46 45 45 47 46 48 39 19 21 22 22 38 28 11 11 6 8 23 23 16 9 12 23 19 13 16 16 21 27 27 20 13 14 15 11 8 9 12 12 9 5 1 1 3 6 8 6 7 8 6 6 5 5 6 3 6 4 1 5 6 2 2 2 4 6 8 9 11 11 12 12 12 12 13 16 19 22 22 21 22 23 25
51 50 48 49 47 45 46 46 47 48 44 42 32 21 23 26 35 39 20 9 10 5 8 18 19 17 12 15 23 17 9 11 12 20 30 28 20 13 11 12 10 9 12 14 12 9 2 1 2 4 6 9 9 8 10 9 6 5 6 5 1 4 6 6 7 6 2 4 3 2 5 5 6 10 11 7 5 8 11 12 15 17 20 24 27 28 28 28
51 49 49 49 46 47 49 46 48 48 41 40 34 28 30 36 41 34 15 6 7 6 8 15 17 17 17 17 21 16 9 9 13 24 33 27 21 16 10 7 5 7 12 10 6 3 2 2 2 4 7 7 8 8 10 9 8 5 4 3 2 3 6 8 8 6 2 2 1 1 5 4 2 6 8 6 5 8 9 10 13 14 15 19 26 28 29 30
51 50 51 49 48 54 51 46 48 46 40 41 37 33 38 45 40 25 10 3 7 9 9 12 13 16 18 16 21 16 6 12 16 21 31 26 19 15 10 8 5 4 8 6 3 1 4 4 2 4 7 6 7 7 7 9 8 3 1 2 5 5 6 8 7 5 2 1 2 2 4 4 5 3 4 5 5 8 8 10 12 13 13 15 19 24 26 27
51 50 51 50 52 56 47 45 50 45 40 40 37 39 45 46 33 16 6 4 7 9 9 9 9 13 16 18 23 12 5 18 16 14 27 24 17 13 9 11 10 6 6 5 7 2 4 6 6 7 7 6 5 2 4 9 7 1 2 1 4 4 6 8 6 4 0 1 3 5 4 3 6 4 4 4 6 9 10 11 11 12 12 10 11 15 19 21
52 50 51 52 54 49 39 42 49 43 40 39 38 43 46 38 22 8 3 5 7 6 7 11 11 13 15 18 20 9 8 16 8 12 26 21 15 10 5 10 11 9 5 1 3 1 2 3 4 5 6 4 3 4 2 3 3 4 4 3 5 3 4 5 5 3 2 4 5 6 6 4 5 5 5 4 5 9 10 8 6 9 9 8 8 9 12 15
52 52 52 55 55 46 37 38 44 43 41 39 41 46 41 26 13 6 5 5 7 6 8 13 14 15 17 16 14 10 10 7 5 17 21 15 14 8 3 8 9 9 5 4 5 3 1 2 1 1 2 2 5 5 5 3 4 8 7 6 6 4 4 3 3 3 4 6 4 3 3 4 4 4 6 4 2 3 5 4 5 7 8 7 7 6 8 11
52 53 53 56 54 46 38 35 42 47 42 41 47 45 29 13 6 6 6 6 7 5 6 11 14 16 20 18 11 12 11 5 11 20 16 11 12 9 7 8 6 6 5 3 5 3 3 4 1 2 2 2 4 5 6 3 4 6 5 6 6 4 3 4 4 3 6 6 1 2 0 3 5 4 3 1 1 1 1 2 4 8 8 8 6 3 4 7
52 52 53 53 50 45 40 39 48 49 41 44 51 38 18 7 5 6 6 8 8 7 8 14 17 17 20 19 12 13 11 7 13 16 13 11 9 10 11 8 7 6 5 7 5 4 4 3 2 2 1 3 3 5 5 2 2 3 5 8 5 4 5 5 5 5 6 3 2 1 1 3 7 7 5 6 4 2 3 1 3 7 8 7 4 1 2 5
52 51 52 50 47 44 40 43 51 45 40 46 42 23 9 6 8 8 8 7 7 9 12 15 18 18 19 16 11 13 11 9 14 15 13 12 10 10 9 7 11 9 5 8 7 4 4 2 3 3 2 5 5 4 5 3 5 7 8 8 6 6 5 6 6 5 5 1 2 0 1 3 6 6 9 10 5 3 4 2 3 4 6 4 2 2 2 4
52 51 52 50 46 42 39 45 49 42 45 45 26 11 8 8 9 10 10 6 5 10 14 15 18 19 18 14 11 13 9 6 12 15 13 12 10 10 7 7 13 9 4 8 6 6 6 3 4 4 3 6 6 2 0 4 8 6 3 4 6 6 4 5 5 5 4 2 2 2 2 4 3 1 3 5 1 2 3 6 8 8 9 8 6 3 4 5
51 50 51 48 46 40 39 47 45 42 50 39 14 7 10 9 9 11 10 7 7 11 15 17 18 18 15 11 13 13 4 3 11 11 11 12 10 11 11 10 13 9 7 8 4 5 7 3 2 1 2 3 4 1 3 1 7 3 1 2 4 3 1 2 1 1 2 1 2 4 3 4 3 4 3 4 2 3 4 7 10 11 11 11 6 4 7 7
51 51 48 47 47 40 41 48 42 45 49 28 8 9 10 7 6 9 9 9 10 14 18 18 14 14 13 8 12 13 2 3 12 9 9 12 10 12 12 11 13 11 9 9 3 3 6 2 2 1 2 1 1 2 3 1 3 3 2 3 2 2 2 2 1 2 1 4 3 4 4 4 3 7 4 4 3 3 4 5 7 7 8 9 5 8 10 9
52 50 45 44 46 39 43 47 42 47 40 16 9 11 6 3 2 4 11 12 14 17 17 14 10 11 13 8 11 14 7 6 11 8 8 11 10 13 14 11 15 16 10 5 3 2 4 3 2 1 3 3 3 2 1 2 1 2 3 3 2 1 1 1 2 1 2 5 3 4 6 4 3 4 2 5 4 4 5 5 5 5 6 7 7 11 12 10
52 48 40 39 43 40 43 45 43 45 28 7 11 12 3 3 2 7 15 15 17 19 13 11 9 9 12 10 10 14 12 9 10 8 9 9 8 13 16 11 13 18 10 2 2 2 2 3 2 2 1 3 2 0 2 1 1 0 2 1 1 2 3 3 3 3 4 5 4 4 5 4 4 4 2 3 5 5 6 5 4 5 6 7 11 14 13 11
51 40 28 34 41 39 42 44 42 37 17 6 12 10 2 4 4 11 22 19 16 15 12 11 10 8 11 12 12 14 13 11 11 9 7 7 6 10 16 10 8 15 11 2 2 3 1 1 2 1 1 2 1 2 5 5 2 0 2 1 0 1 2 3 3 3 3 5 5 3 2 3 5 6 7 6 2 3 5 5 4 6 7 9 14 16 14 12
47 27 16 34 43 38 41 42 32 21 10 7 8 5 3 5 4 12 22 19 11 8 9 12 12 10 11 13 13 13 12 11 12 9 7 9 7 4 12 12 8 10 8 4 2 4 2 1 2 2 1 2 3 3 4 5 5 4 4 4 3 1 0 1 3 1 1 4 5 4 3 2 2 3 7 5 3 4 3 2 4 4 6 10 13 15 15 13
40 14 13 37 43 40 42 32 17 12 7 5 3 3 3 6 7 9 11 11 6 1 3 10 12 11 10 13 13 12 10 9 12 10 6 10 10 4 9 14 12 11 8 4 3 4 2 1 4 4 3 3 2 1 1 1 1 3 4 6 6 4 3 3 4 2 0 3 3 3 4 2 2 0 2 1 3 4 3 1 2 4 6 10 13 15 15 13
28 7 20 43 45 45 41 19 8 10 6 4 4 4 4 7 9 8 6 6 5 3 1 6 10 10 9 11 12 12 10 8 11 11 6 10 12 6 8 14 18 19 11 5 3 2 2 3 5 4 2 2 1 2 1 0 1 1 2 3 4 5 5 6 5 3 2 2 1 1 3 2 2 1 1 2 3 3 3 2 0 2 5 9 13 16 17 17
18 15 28 45 46 45 31 9 6 8 3 3 5 5 3 6 8 8 7 6 3 3 3 4 6 8 7 8 10 13 12 8 10 12 9 9 7 3 7 15 20 18 10 4 3 2 2 3 4 3 2 1 1 2 1 0 1 3 3 3 3 4 4 3 2 1 3 4 3 2 4 3 1 1 2 1 2 2 1 2 2 3 6 10 15 19 21 21
27 29 31 42 45 37 19 7 10 10 5 6 6 4 2 2 6 8 8 7 3 4 7 5 5 6 4 5 8 13 13 7 7 10 6 7 5 3 9 20 20 14 8 6 8 8 5 3 4 5 3 2 2 2 2 1 2 4 4 5 6 3 2 2 1 2 3 5 6 5 6 4 1 1 1 1 1 1 2 4 5 6 8 13 18 20 21 22
28 23 24 39 41 27 11 5 9 9 8 9 7 8 6 3 3 4 5 5 1 1 6 4 4 6 6 6 7 10 12 6 4 6 3 4 5 3 6 19 20 12 6 8 12 12 6 3 5 6 5 5 5 5 6 5 4 4 2 4 7 7 6 4 3 3 4 5 6 6 7 3 1 1 1 1 1 3 3 5 7 9 12 16 19 21 22 22
16 8 14 26 26 19 8 3 6 8 11 11 8 8 10 7 4 1 3 4 0 1 4 4 5 8 7 9 9 9 12 4 3 5 6 5 4 3 3 12 14 8 5 10 18 14 2 1 5 7 8 8 9 9 9 7 6 7 7 8 10 11 11 6 2 5 6 4 4 7 9 6 2 3 3 3 3 4 4 6 7 11 16 19 21 22 23 22
7 5 11 13 12 14 10 6 8 9 12 14 9 8 12 11 8 4 0 2 3 3 3 3 6 9 10 13 10 10 13 6 4 6 9 7 4 4 4 5 6 6 4 11 20 13 1 2 6 8 10 9 7 6 8 9 8 11 13 12 12 12 12 9 7 11 9 4 6 11 12 11 8 6 6 6 6 5 5 8 10 15 21 23 23 24 23 21
3 5 12 13 8 8 11 12 13 12 15 17 9 8 14 13 12 10 4 1 4 5 2 2 6 11 15 16 10 8 10 6 3 6 6 6 5 5 5 2 2 4 3 7 13 8 3 7 7 7 10 9 2 4 5 9 8 10 10 10 12 13 13 13 13 14 10 7 10 14 13 14 12 8 8 7 8 7 7 10 12 17 23 23 24 25 22 20
4 6 10 12 4 2 9 13 14 14 17 16 9 10 16 15 14 12 6 5 5 6 5 6 10 13 15 14 10 9 10 8 7 6 5 7 7 5 5 3 2 3 2 4 5 1 3 8 8 8 10 11 4 4 4 8 8 9 10 10 12 14 15 15 14 15 14 12 14 16 16 13 9 8 9 7 9 9 7 9 13 19 24 24 24 25 22 19
7 5 7 8 4 7 14 14 14 16 14 13 10 9 13 15 15 12 7 7 9 8 7 8 13 15 14 14 11 9 12 13 10 8 8 8 5 4 5 5 5 3 2 3 2 1 3 6 8 8 7 10 6 4 2 4 5 8 9 9 11 13 14 14 13 14 14 15 17 17 15 11 6 8 9 7 9 9 7 10 16 23 27 26 24 24 23 19
9 7 10 10 5 9 15 12 12 14 12 11 11 10 12 15 15 12 6 2 4 8 9 10 12 12 9 11 10 8 13 13 8 15 20 15 12 12 7 5 9 8 5 5 4 3 3 2 4 6 6 8 5 5 5 3 1 4 5 7 12 13 12 13 13 14 14 14 15 14 12 10 7 8 9 8 9 9 9 12 16 21 27 26 24 25 25 21
10 9 13 12 5 6 11 10 12 13 11 12 12 11 12 14 14 13 7 1 1 2 7 10 12 9 5 9 8 6 11 9 5 17 23 15 13 14 7 9 16 13 7 7 4 3 6 5 4 6 8 7 3 4 6 6 1 5 7 10 14 14 14 14 14 15 15 13 12 10 11 10 5 8 9 7 7 7 9 12 15 19 25 27 27 27 25 23
Wind_Direction
204 204 202 200 201 202 204 206 208 211 214 214 214 215 217 218 216 213 213 211 210 210 209 210 210 212 214 217 219 219 219 226 230 227 221 212 211 225 232 228 214 214 228 231 233 241 259 268 245 232 246 237 228 228 220 219 211 205 214 214 207 211 195 175 184 164 110 136 146 162 174 178 163 173 190 186 196 192 168 183 195 199 205 217 184 171 180 187
205 204 200 198 200 200 201 204 205 208 212 213 213 214 215 216 216 214 212 209 208 207 206 207 209 211 213 216 219 218 221 228 229 229 222 210 213 226 232 226 203 193 222 228 235 246 251 262 255 240 238 230 223 216 216 211 201 212 225 213 217 201 125 90 158 99 29 150 152 163 179 188 171 167 178 187 194 192 190 195 198 195 199 212 200 185 189 181
206 205 200 196 199 200 199 201 204 205 209 212 212 212 213 214 214 214 211 207 204 204 204 205 207 209 211 216 218 218 224 229 230 232 225 214 221 227 232 226 199 181 202 212 231 257 244 251 270 252 241 241 221 203 210 203 202 224 236 222 215 138 93 69 103 94 50 130 152 164 176 187 167 158 175 198 196 194 211 203 193 199 191 199 201 194 195 184
205 203 199 195 197 200 199 199 202 203 206 211 212 211 211 212 212 212 211 205 202 203 203 204 206 208 211 213 215 218 220 225 236 233 218 210 220 224 232 225 195 191 201 205 224 248 241 241 253 248 243 246 222 208 208 193 196 200 203 241 27 105 113 101 98 98 98 137 157 159 165 178 162 161 179 197 205 201 219 213 200 208 192 188 198 198 196 189
204 200 196 194 196 199 199 199 201 201 204 210 211 211 210 210 210 210 209 205 200 200 200 202 205 207 209 209 211 213 205 211 246 236 218 206 214 218 224 213 188 201 215 217 229 238 236 231 235 236 238 239 218 217 209 191 192 191 193 5 32 44 90 101 115 123 114 134 152 152 168 174 156 179 194 200 215 188 198 204 193 203 188 188 201 201 191 192
201 197 192 192 195 199 199 199 201 201 202 208 211 211 210 209 208 207 207 204 199 198 197 199 202 204 205 205 207 198 189 207 285 237 218 203 205 210 210 198 187 212 220 226 236 235 229 220 216 217 224 231 219 215 197 184 199 219 194 120 58 39 62 88 144 166 133 139 159 158 167 162 165 193 202 209 220 120 96 167 184 190 173 183 204 208 196 195
201 196 191 191 195 199 200 199 200 200 201 206 209 211 210 207 207 205 204 203 199 197 196 197 200 202 202 199 195 186 197 236 335 221 209 196 194 198 197 190 196 223 221 227 235 228 221 210 206 208 215 226 219 214 191 175 205 242 196 143 108 59 80 114 162 179 163 165 160 155 160 169 191 193 189 215 223 223 190 162 184 201 188 192 210 215 213 208
203 197 193 193 198 200 200 199 199 198 200 205 207 209 209 207 207 205 204 203 199 198 196 198 200 202 204 194 180 181 208 223 193 132 196 192 191 191 190 189 203 222 219 224 229 222 215 208 205 204 213 226 215 206 190 171 206 239 202 129 122 81 94 135 163 173 175 186 156 160 172 174 201 189 192 221 218 227 234 205 173 199 198 206 215 216 217 217
201 198 198 197 199 200 199 198 196 196 199 204 206 207 207 206 206 206 205 203 200 199 198 199 200 200 201 191 178 188 215 210 186 139 175 192 195 194 194 194 206 218 215 220 224 218 215 212 207 204 219 238 220 200 191 190 208 217 172 120 127 103 101 124 154 169 181 186 170 178 178 157 202 222 237 225 210 218 231 230 218 206 197 203 209 214 215 218
199 197 197 197 197 197 197 194 193 194 198 203 204 204 205 205 206 205 205 202 200 200 199 199 199 198 191 181 183 203 216 209 200 184 148 183 197 199 200 202 209 214 211 216 219 215 215 215 211 211 228 253 228 210 197 205 210 160 135 114 122 106 110 132 148 166 167 160 183 190 171 137 178 218 236 199 206 223 229 235 233 226 218 207 205 211 214 217
199 195 193 193 194 193 192 190 192 194 197 201 200 200 201 202 204 205 202 200 199 198 197 196 194 193 186 179 191 208 211 212 210 207 194 172 197 202 202 204 210 211 209 214 216 211 212 218 218 214 226 250 209 206 205 209 143 142 134 112 120 115 121 137 141 164 175 160 183 191 154 135 146 210 230 181 204 225 222 226 234 230 223 222 218 215 216 215
200 196 190 189 190 190 189 188 190 193 196 199 198 199 200 200 203 203 198 195 194 193 192 190 188 186 181 184 203 217 219 217 214 215 216 204 198 199 198 204 210 210 210 215 215 209 211 217 218 216 229 248 182 175 204 187 154 158 158 142 144 148 151 154 144 169 206 179 169 167 176 191 195 214 216 197 204 209 212 217 228 231 221 218 224 225 224 219
196 192 187 186 188 188 187 187 189 193 197 199 197 197 200 200 201 199 193 189 188 188 186 184 185 182 177 191 210 213 219 212 213 217 215 213 209 196 198 205 208 207 210 215 217 212 211 211 210 220 235 257 185 160 159 151 152 172 191 196 162 183 188 163 152 172 201 169 169 184 234 216 205 204 196 198 205 192 202 212 218 229 222 214 221 227 230 227
191 186 184 184 185 185 184 185 188 192 195 197 197 196 197 198 199 193 186 183 183 182 181 181 182 179 178 203 213 211 209 199 207 212 209 211 214 203 200 206 205 204 209 212 217 215 210 207 207 223 233 249 190 155 138 138 174 178 193 218 191 206 180 147 154 176 180 162 175 206 260 239 182 175 181 197 203 195 204 215 215 222 220 219 224 228 231 231
187 184 183 183 182 181 182 183 184 188 189 190 191 191 191 193 192 185 180 179 178 177 176 178 178 174 182 214 222 221 215 208 211 206 205 207 212 209 199 201 201 201 205 206 211 213 205 201 207 216 212 204 171 165 158 155 195 189 189 207 207 215 159 136 157 180 185 161 183 212 241 245 142 137 171 198 201 199 209 220 217 215 214 218 226 229 230 231
185 184 182 182 180 179 181 181 181 184 184 184 186 186 184 186 183 176 174 174 172 172 173 176 173 166 186 216 216 220 214 213 214 204 203 201 206 210 196 194 196 197 200 203 206 205 199 195 203 204 171 170 182 186 178 169 193 200 207 208 197 204 173 146 161 183 188 152 191 221 252 252 138 124 173 194 197 201 212 223 221 221 217 216 223 229 230 229
185 183 181 180 178 179 179 179 179 180 182 182 184 184 179 178 174 166 165 166 166 167 168 173 171 166 226 223 210 209 206 210 209 204 202 195 198 203 193 187 188 190 190 194 195 190 190 185 188 198 180 191 204 199 190 189 196 192 211 219 191 202 198 166 153 171 185 182 205 215 240 259 175 133 170 183 180 187 208 224 226 229 227 223 224 227 231 230
183 181 180 178 178 178 178 177 178 178 178 177 177 179 172 166 159 153 155 155 155 156 155 169 170 172 242 215 205 198 199 206 203 202 200 190 188 190 189 185 180 179 172 172 176 175 179 176 182 198 196 206 208 203 202 200 200 186 194 209 182 208 223 202 158 155 183 205 219 204 219 248 236 169 166 172 176 182 200 216 225 233 232 229 227 227 232 233
181 179 178 178 178 176 176 176 176 176 174 171 171 165 154 145 141 145 154 152 152 155 161 181 177 177 258 192 185 176 190 201 195 194 196 187 181 181 185 182 173 169 161 159 170 174 173 168 190 207 202 202 205 209 213 216 208 188 184 204 202 203 217 195 102 106 192 206 216 216 223 239 241 225 196 179 179 194 213 218 226 233 235 236 231 230 233 236
178 178 176 177 177 175 174 175 177 179 176 174 166 151 142 143 137 150 167 165 169 173 180 181 182 190 42 160 175 176 180 191 190 187 192 187 176 171 174 168 166 173 176 171 168 173 179 179 195 208 206 203 207 211 217 281 222 190 186 208 216 207 199 138 93 87 229 224 217 225 239 245 246 243 229 201 188 204 221 223 229 232 234 235 233 233 234 239
176 176 176 177 177 175 175 177 181 183 182 180 166 153 156 159 151 175 172 173 186 188 187 175 179 188 96 153 174 176 167 169 185 188 190 184 171 166 167 164 167 183 187 164 148 153 184 206 204 207 211 203 205 206 198 357 218 202 200 205 214 214 180 100 94 120 154 245 223 218 249 254 253 252 247 235 222 226 228 225 231 234 234 232 230 233 235 239
174 175 175 176 176 175 176 177 180 180 182 180 168 160 170 166 166 175 163 147 177 181 170 169 174 173 126 163 171 168 163 160 174 186 185 176 172 174 171 175 184 176 155 150 143 150 194 215 203 192 168 146 158 158 186 239 219 215 211 211 220 196 132 101 102 121 146 232 217 173 260 260 257 256 251 243 239 240 238 233 234 235 235 233 228 231 237 240
174 174 174 175 175 174 175 175 175 177 179 178 172 166 172 170 173 165 152 114 138 144 139 167 177 172 134 166 169 160 165 168 167 178 181 174 178 186 175 183 191 162 159 176 175 179 196 209 183 137 116 130 140 167 194 219 223 223 214 215 213 160 166 203 155 142 161 242 307 333 285 269 260 256 250 243 240 240 236 233 233 232 232 229 224 229 237 240
173 173 174 174 174 174 174 173 172 177 180 180 178 166 164 166 153 153 142 107 140 128 149 172 181 180 157 165 172 168 169 171 166 175 179 174 175 184 181 187 186 160 177 192 191 194 189 148 86 137 153 169 172 181 197 211 214 221 225 228 204 160 171 44 124 144 153 219 271 304 283 270 250 241 243 235 229 231 228 228 233 234 236 236 232 233 237 240
173 173 174 173 173 172 170 170 174 179 181 183 182 159 157 159 149 151 139 114 150 137 157 176 180 184 185 173 174 176 163 157 160 174 178 175 174 173 176 188 188 180 186 188 196 206 190 79 190 167 166 182 182 186 201 209 212 211 217 231 239 173 155 101 129 154 191 212 205 245 258 266 232 226 234 214 197 224 220 222 232 234 237 241 240 239 240 242
172 172 173 171 171 168 165 170 176 178 181 186 179 156 155 157 151 153 143 123 168 147 149 175 177 186 193 178 168 165 163 171 173 178 179 178 180 174 166 177 193 196 180 173 198 217 118 119 180 162 160 174 189 202 199 203 220 215 206 201 137 156 151 137 160 182 228 220 138 219 244 260 223 213 216 198 212 232 217 220 233 230 225 232 239 241 241 242
172 172 172 170 168 167 166 172 176 176 182 186 174 157 156 157 157 161 151 143 182 153 147 169 176 187 187 174 168 164 155 165 167 179 181 179 183 183 179 174 177 186 157 144 187 169 115 144 163 161 162 167 192 209 187 194 222 216 33 188 157 161 167 160 181 206 238 86 113 212 239 265 262 227 158 166 226 244 229 227 231 224 215 219 233 240 240 242
172 172 171 169 168 169 169 171 174 177 182 180 167 159 159 160 166 173 164 173 163 141 149 163 166 173 167 165 176 183 134 152 158 177 181 181 179 184 204 197 183 157 136 163 192 162 106 160 169 160 168 183 193 229 159 188 220 194 30 231 149 159 177 171 190 208 229 265 209 192 185 241 257 232 150 164 237 246 238 235 225 211 204 201 214 229 237 239
172 173 171 169 168 170 172 172 174 177 175 170 164 160 160 162 170 177 195 187 143 129 152 156 157 161 159 166 180 191 153 160 164 165 175 181 174 178 220 199 175 136 100 58 165 101 35 169 174 163 179 185 140 25 19 198 206 151 149 107 97 117 151 167 201 193 179 245 232 180 178 235 262 233 191 182 232 239 237 235 208 180 173 169 184 211 229 235
172 172 171 169 169 171 172 171 176 174 166 162 162 160 159 162 168 176 205 187 143 140 146 152 165 164 163 169 179 185 170 161 125 146 165 177 173 175 133 146 149 130 111 52 82 71 30 100 41 102 169 148 104 58 18 14 122 143 149 118 107 124 141 167 207 194 205 231 226 149 172 252 274 240 206 192 219 241 235 214 154 148 150 151 167 195 225 238
172 172 172 169 170 173 169 170 176 171 163 161 160 158 157 156 181 192 178 148 135 140 141 154 165 165 170 175 175 180 174 141 138 150 159 169 169 171 148 142 143 136 155 143 105 90 103 122 125 72 94 126 115 84 40 29 146 151 156 143 129 131 152 182 184 195 228 229 177 86 334 247 241 233 196 175 26 58 240 224 159 159 153 143 149 178 234 245
172 173 172 169 171 173 171 173 172 167 164 163 159 158 158 151 207 214 155 142 155 171 176 168 166 169 176 177 168 170 165 144 160 163 161 168 172 175 177 181 170 161 185 181 154 128 122 120 124 93 127 200 170 113 79 47 201 201 176 163 166 167 172 201 190 196 226 212 90 80 298 246 244 247 246 270 280 182 178 221 161 158 148 136 139 168 243 245
172 172 170 171 174 174 174 170 165 163 165 162 160 165 169 161 195 197 166 164 161 159 165 165 165 169 173 174 166 164 160 153 171 173 168 173 178 179 192 198 181 188 203 172 155 149 146 129 151 142 167 216 216 162 143 175 196 200 187 181 194 183 179 202 194 203 221 172 70 209 255 258 258 257 246 254 261 133 144 182 195 185 173 176 224 245 214 219
171 171 171 174 176 174 172 165 162 164 163 160 162 177 178 180 190 182 174 172 143 146 155 156 157 164 173 177 164 159 157 156 172 173 170 174 181 183 196 197 190 200 180 160 163 175 181 179 173 161 140 186 209 225 163 173 183 197 205 206 212 203 204 205 197 210 198 117 95 187 231 237 229 97 216 228 180 126 205 219 228 232 228 245 265 228 181 190
169 171 172 174 175 175 170 165 165 165 162 159 165 180 181 189 185 180 172 150 146 149 148 150 152 161 176 176 162 164 171 171 175 176 174 179 188 187 187 190 192 192 167 165 164 176 190 190 117 68 44 173 188 299 338 174 176 189 354 256 232 233 204 167 171 182 140 87 165 184 246 251 264 305 249 193 171 203 212 215 227 235 238 254 259 180 176 187
167 170 174 175 176 175 170 169 169 165 163 163 170 184 193 195 178 179 158 136 153 149 140 149 157 164 170 166 166 174 215 175 174 179 182 189 198 190 187 186 186 189 185 176 156 168 185 163 44 64 67 59 34 3 335 307 179 173 179 201 220 4 64 129 160 86 73 272 200 168 238 248 269 282 243 160 169 184 169 190 207 210 221 239 223 173 181 189
166 172 175 176 177 173 170 173 171 166 168 177 186 186 195 179 158 155 138 130 143 144 141 154 168 173 169 165 173 174 165 159 173 184 183 189 201 194 191 185 179 188 198 185 177 208 174 126 39 25 101 66 3 0 19 0 18 152 184 181 140 23 8 202 236 166 187 247 214 169 228 236 215 244 170 147 187 188 168 172 173 179 200 211 190 176 183 190
166 171 173 179 178 171 171 175 173 169 174 210 199 191 186 133 115 130 136 134 143 151 156 160 167 184 178 170 174 171 164 163 176 188 180 184 201 190 187 180 175 185 192 181 193 200 153 126 71 9 85 94 33 301 174 162 11 355 266 273 125 206 215 189 219 222 202 229 238 194 216 242 223 217 205 191 194 185 175 164 165 187 191 188 181 177 181 188
162 164 170 179 176 171 173 174 172 172 181 227 201 195 149 116 125 141 141 141 150 160 168 164 160 179 183 174 166 166 174 175 171 177 185 187 189 186 186 177 165 180 178 145 191 164 116 186 135 66 17 111 111 222 196 180 158 177 294 300 328 253 234 195 205 236 224 223 237 211 191 233 217 210 227 226 177 151 173 169 181 191 182 184 181 174 175 182
158 153 168 178 173 171 171 168 168 175 196 218 196 183 123 113 132 150 145 145 156 168 176 171 163 165 173 172 164 163 180 182 171 181 199 183 174 200 199 185 157 160 147 93 164 160 138 259 139 106 11 171 175 209 209 187 173 184 194 183 186 190 7 242 221 235 262 234 238 238 235 235 177 197 226 223 103 97 125 178 191 171 166 181 178 169 170 176
155 139 161 175 173 166 163 161 169 188 206 207 161 127 132 127 141 152 140 137 138 124 185 172 167 166 163 168 166 161 173 180 177 189 196 181 188 216 204 186 157 139 133 129 174 166 164 192 131 138 175 181 161 43 347 296 167 193 201 194 196 180 149 207 212 164 346 258 252 256 260 246 101 71 242 175 84 81 73 32 176 145 160 177 172 165 165 169
154 133 163 172 170 162 158 159 186 194 199 188 129 97 125 139 148 149 134 135 125 73 109 159 163 164 159 166 165 157 165 174 181 191 197 195 202 201 190 180 157 150 152 151 151 119 78 96 112 122 158 167 87 53 55 301 282 267 247 219 209 194 190 213 218 186 172 212 13 335 278 270 97 11 341 71 57 54 53 18 51 154 179 178 167 161 158 158
141 119 157 169 164 160 161 163 185 188 199 158 112 77 110 143 147 145 148 161 145 122 148 145 154 163 162 165 161 159 164 167 182 192 195 198 199 159 165 165 153 154 159 135 131 139 107 107 118 109 80 90 108 104 108 115 253 247 236 222 220 208 200 222 240 202 170 173 174 219 249 248 115 36 342 20 21 346 300 274 221 199 198 181 164 156 151 147
125 120 148 164 160 162 173 181 179 183 171 147 124 107 118 107 135 152 167 175 164 159 161 147 152 165 160 157 159 166 168 167 192 199 193 187 174 95 150 161 156 160 173 171 171 172 170 150 129 128 130 158 173 175 188 187 206 228 221 200 209 200 119 94 224 251 221 192 191 220 245 246 135 78 343 56 74 257 247 227 211 200 192 180 165 155 149 146
124 122 143 160 163 173 196 204 183 173 146 142 141 146 142 86 119 155 153 146 88 145 152 138 141 135 127 143 149 168 177 172 185 190 175 165 154 72 148 167 169 170 170 166 161 161 174 175 152 160 166 175 190 197 199 187 179 211 209 173 198 198 177 180 210 230 226 192 182 217 245 249 85 103 201 110 167 204 192 194 206 197 184 176 166 157 153 150
131 122 138 158 176 197 228 257 182 162 150 152 152 162 161 143 140 126 105 129 83 66 110 105 136 125 131 157 150 167 184 164 65 167 171 154 136 57 140 171 176 171 145 152 152 148 148 277 183 198 197 192 204 207 195 168 153 186 196 187 196 200 195 197 219 224 219 192 185 221 239 246 206 164 199 221 204 206 184 173 192 193 183 177 170 163 158 155
133 144 150 157 181 203 220 232 193 169 164 167 160 165 167 149 138 151 153 170 194 174 96 84 156 152 157 167 162 175 182 153 80 162 167 151 113 72 110 154 170 157 131 155 153 140 93 239 204 223 230 220 212 197 179 166 171 195 198 191 190 192 191 193 214 224 214 192 225 228 227 237 233 190 189 209 203 204 191 179 189 191 184 181 176 172 167 163
116 147 167 166 164 192 199 196 189 172 165 171 165 157 163 153 151 168 177 116 179 193 165 129 187 183 170 166 161 163 165 145 133 165 152 137 125 109 110 96 158 158 129 160 160 141 161 205 208 221 236 242 210 107 158 181 197 210 206 196 188 182 185 193 214 226 214 205 238 237 224 228 233 213 201 201 193 199 198 186 187 188 186 187 187 184 180 176
123 117 155 169 162 163 157 156 166 168 167 172 172 169 170 166 165 165 146 126 167 211 211 182 189 188 174 168 160 151 160 167 176 179 156 141 144 138 135 132 170 178 139 155 173 180 179 194 202 202 229 244 212 120 177 198 207 218 217 209 192 183 190 198 211 222 218 219 235 242 240 239 231 212 211 198 181 186 186 180 186 190 192 197 199 195 192 189
142 132 145 151 113 137 150 148 161 171 173 174 176 180 180 177 170 157 137 152 169 189 206 189 181 180 174 172 170 170 182 182 173 169 153 136 146 169 168 162 151 152 171 155 157 267 209 195 188 180 223 241 204 136 180 206 220 225 218 204 185 183 197 209 218 222 219 226 237 243 252 259 235 202 203 180 161 163 166 181 194 198 200 203 205 204 203 202
137 148 151 142 105 144 157 157 168 174 177 182 182 178 180 184 174 149 129 162 167 174 191 183 164 160 165 179 186 190 188 183 172 169 165 161 175 182 177 163 150 146 173 176 160 176 193 194 168 166 211 229 191 158 161 122 354 261 228 194 181 183 197 208 218 220 213 223 237 240 248 256 235 198 190 167 153 164 182 195 203 207 207 209 212 212 212 212
127 133 146 141 99 134 154 157 173 179 183 188 183 168 173 184 171 149 144 178 16 153 184 170 148 134 150 188 196 187 176 173 165 170 170 167 169 164 141 150 159 156 162 171 167 178 179 174 156 169 205 221 186 151 145 117 104 247 224 200 190 193 205 210 219 223 217 219 228 230 238 245 216 175 186 179 156 171 197 204 209 213 213 215 218 220 223 225